Other Public Products
Issued by NWS Grand Forks, ND

Home | Current Version | Previous Version | Graphics & Text | Print | Product List | Glossary On
Versions: 1 2 3 4 5 6 7 8 9 10 11 12 13 14 15 16 17 18 19 20 21 22 23 24 25 26 27 28 29 30 31 32 33 34 35 36 37 38 39 40 41 42 43 44 45 46 47 48 49 50
000
FPUS83 KFGF 020931
OPUFGF
PRAIRIE TO PINES WEATHER ROUNDUP
NATIONAL WEATHER SERVICE EASTERN NORTH DAKOTA/GRAND FORKS ND
400 AM CDT TUE SEP 02 2014

 **SATELLITE DATA USED TO AUGMENT SKY COVER AT AUTOMATED STATIONS**
 *****  WEATHER ACROSS EASTERN NORTH DAKOTA  *****

CITY           SKY/WX    TMP DP  RH WIND       PRES   REMARKS
GRAND FORKS    CLEAR     55  48  77 SW8       29.76S
GRAND FORKS AF CLEAR     52  50  92 W6        29.78R
GRAND CITY NWS   N/A     52 N/A N/A W7          N/A
BUXTON         NOT AVBL
DEVILS LAKE    CLEAR     54  46  76 W6        29.78R
FARGO          CLEAR     53  50  89 SW6       29.81S
WAHPETON ARPT  SUNNY     52  48  87 W5        29.84S
$$

 *****  WEATHER ACROSS CENTRAL AND WESTERN NORTH DAKOTA  *****

CITY           SKY/WX    TMP DP  RH WIND       PRES   REMARKS
JAMESTOWN      CLEAR     53  48  83 SW7       29.83S
BISMARCK       PTCLDY    53  49  86 W3        29.85F
MINOT          MOCLDY    54  48  80 SW8       29.77F
MINOT AFB      LGT RAIN  54  52  94 NW5       29.78S
GARRISON         N/A     51  50  96 W3        29.81F
WILLISTON      RAIN      61  48  62 SW13      29.78F
DICKINSON      MOCLDY    50  46  86 S10       29.84F
HETTINGER      CLEAR     49  44  83 CALM      29.91S
$$

 *****  OTHER OBSERVATIONS NORTHEAST NORTH DAKOTA  *****

CITY           SKY/WX    TMP DP  RH WIND       PRES   REMARKS
WALHALLA         N/A     54  48  82 W5        29.75R
LANGDON        FAIR      45  43  93 CALM      29.77S
CAVALIER       FAIR      52  48  87 W7        29.74S
GRAFTON        FAIR      50  50 100 W7        29.75S
CANDO          FAIR      46  45  93 W3        29.79S
FORT TOTTEN    NOT AVBL
ROLLA          FAIR      45  45 100 SW3       29.79S
RUGBY          FAIR      48  48 100 S5        29.79S
 ***** THE ABOVE OBSERVATIONS ARE NON NWS ARE NOT QUALITY
        CONTROLLED AND MAY MIS-REPORT RAIN FOR SNOW...
$$

 *****  OTHER OBSERVATIONS SOUTHEAST NORTH DAKOTA *****

CITY           SKY/WX    TMP DP  RH WIND       PRES   REMARKS
COOPERSTOWN    NOT AVBL
VALLEY CITY    FAIR      48  48 100 SW5       29.83S
OAKES            N/A     48  48 100 S6        29.86R
GWINNER        SUNNY     54  54 100 SW8       29.86S
SHEYENNE NWR     N/A     51  50  96 SW3       29.95
BUFFALO          N/A     52  48  87 SW6         N/A
WYNDMERE       NOT AVBL
 ***** THE ABOVE OBSERVATIONS ARE NON NWS ARE NOT QUALITY
       CONTROLLED AND MAY MIS-REPORT RAIN FOR SNOW...
$$

  *****  WEATHER ACROSS NORTHERN MINNESOTA  *****

CITY           SKY/WX    TMP DP  RH WIND       PRES   REMARKS
FLAG ISLAND    CLEAR     55  50  82 W13       29.70R
WARROAD        CLEAR     52  46  82 SW8       29.74S
ROSEAU           N/A     52  46  82 SW8       29.74S
HALLOCK        CLEAR     48  46  93 CALM      29.74S
THF RVR FALLS  CLOUDY    52  50  93 S6        29.78S
HALSTAD          N/A     49  46  91 SW6         N/A
FOSSTON        CLEAR     48  46  93 S7        29.81R
BAUDETTE       CLEAR     51  49  92 SW3       29.73R
WASKISH        CLEAR     55  52  88 S3        29.77R
CROOKSTON      CLEAR     52  48  87 SW3       29.78S
$$
  *****  WEATHER ACROSS CENTRAL AND WEST MINNESOTA  *****

CITY           SKY/WX    TMP DP  RH WIND       PRES   REMARKS
BEMIDJI        CLEAR     53  49  86 SW6       29.80R
PARK RAPIDS    PTCLDY    50  48  93 W3        29.82R
WADENA         PTCLDY    52  52 100 W5        29.83S
DETROIT LAKES  CLEAR     55  54  94 SW5       29.83S
MOORHEAD       CLEAR     54  54 100 SW3       29.83R
FERGUS FALLS   CLEAR     54  52  94 CALM      29.85R
ELBOW LAKE     FAIR      54  53  96 CALM      29.85R
MORRIS MN      PTCLDY    55  54  94 CALM      29.85R
STAPLES        MOCLDY    50  50 100 CALM      29.83S
WHEATON        CLEAR     54  52  94 W5        29.87R
$$
  *****  WEATHER ELSEWHERE ACROSS MINNESOTA  *****

CITY           SKY/WX    TMP DP  RH WIND       PRES   REMARKS
DULUTH         MOCLDY    56  51  84 W8        29.80R
INTRNTL FALLS  CLEAR     50  49  96 SW5       29.74R
ELY            CLEAR     50  48  93 SW5       29.78R
CLOQUET        MOCLDY    54  50  87 W5        29.81R
BRAINERD       MOCLDY    51  51 100 S5        29.83R
HIBBING        FOG       47  45  93 CALM      29.79S VSB 1/2
ALEXANDRIA     MOCLDY    57  54  89 W3        29.86R
SAINT CLOUD    CLOUDY    59  55  87 CALM      29.83R
MINNEAPOLIS    CLOUDY    64  59  83 SW7       29.83R
$$

  *****  WEATHER ACROSS SOUTH DAKOTA  *****

CITY           SKY/WX    TMP DP  RH WIND       PRES   REMARKS
SIOUX FALLS    MOCLDY    58  55  90 W3        29.92R
BROOKINGS      NOT AVBL
WATERTOWN      CLEAR     54  51  90 W3        29.89R
HURON          CLEAR     53  51  93 CALM      29.91R
SISSETON         N/A     54  53  97 CALM      29.85R
ABERDEEN       CLEAR     48  48 100 SW6       29.88S
MITCHELL       CLEAR     59  56  89 SW8       29.92R
PIERRE         CLEAR     54  52  93 SW14      29.91S
MOBRIDGE       CLEAR     50  49  96 CALM      29.88S
RAPID CITY     CLEAR     46  41  82 CALM      29.99S
$$

  *****  SOME WEATHER IN NEARBY STATES *****

CITY           SKY/WX    TMP DP  RH WIND       PRES   REMARKS
GLASGOW MT     PTCLDY    56  46  69 W9        29.79S
GREAT FALLS MT CLOUDY    51  37  58 SW9       29.91S
CHEYENNE WY    CLEAR     44  40  85 W6        30.16S
SCOTTSBLUFF NE CLEAR     45  44  97 CALM      30.08S
OMAHA NE       PTCLDY    61  57  87 NW3       29.93S
DES MOINES IA  CLOUDY    65  58  78 CALM      29.87F
DAVENPORT IA   FOG       61  60  97 CALM      29.89S VSB 1/4
CHICAGO IL     MOCLDY    69  64  84 W6        29.87S
EAU CLAIRE WI  MOCLDY    59  58  96 S6        29.82S
LA CROSSE WI   CLEAR     62  60  93 S5        29.84S
$$

  *****  SOME NATIONAL WEATHER *****

CITY           SKY/WX    TMP DP  RH WIND       PRES   REMARKS
LA GUARDIA NY  CLEAR     79  73  82 SW5       29.89F
RALEIGH NC     PTCLDY    74  69  85 SW3       30.05S
ATLANTA GA     PTCLDY    72  69  90 SW3       30.09F
NEW ORLEANS LA PTCLDY    79  74  84 CALM      30.01R
OKLAHOMA CITY  MOCLDY    78  67  68 S9        29.85R
ALBUQUERQUE NM CLEAR     72  40  31 W3        30.08S
SALT LAKE CITY CLEAR     60  37  42 SE7       30.02F
LOS ANGELES CA PTCLDY    69  63  81 SE3       29.84R
BOISE ID       CLEAR     57  36  45 SE9       29.97F
SEATTLE WA     MOCLDY    63  54  72 NE8       29.98F
$$

*** WEATHER ACROSS MANITOBA...SASKATCHEWAN AND ONTARIO ***
                ***ONTARIO***

CITY           SKY/WX    TMP DP  RH WIND       PRES   REMARKS
GERALDTON      CLEAR     54  52  94 SW7       29.62S
THUNDER BAY    PTCLDY    52  50  93 W3        29.72R
SIOUX LOOKOUT  CLEAR     54  54 100 SW6       29.66R
TORONTO        PTCLDY    68  66  94 SW5       29.81S
BIG TROUT LK   CLOUDY    55  54  94 NW8       29.48S
PICKLE LAKE    NOT AVBL
DRYDEN         CLEAR     50  50 100 SW8       29.68R
KENORA         PTCLDY    54  50  87 W5        29.70R
$$
                *** MANITOBA***

CITY           SKY/WX    TMP DP  RH WIND       PRES   REMARKS
BRANDON        PTCLDY    45  45 100 W5        29.74F
DAUPHIN        PTCLDY    52  46  82 SW8       29.68S
ISLAND LAKE    PTCLDY    55  52  88 CALM      29.56R
PILOT MOUND      N/A     46  43  87 W3          N/A
THE PAS        PTCLDY    52  50  93 SW6       29.59R
THOMPSON       PTCLDY    45  45 100 W5        29.51S
WINNIPEG       CLEAR     52  46  82 W9        29.71S
CHURCHILL      FOG       50  50 100 E10       29.48F VSB 3/8
GILLAM         PTCLDY    45  45 100 CALM      29.48S
$$
                ***SASKATCHEWAN***

CITY           SKY/WX    TMP DP  RH WIND       PRES   REMARKS
ESTEVAN        PTCLDY    52  48  87 SE6       29.75
KINDERSLEY     MOCLDY    45  45 100 W5        29.73S
LLOYDMINSTER   CLOUDY    50  45  81 W7        29.71R
PRINCE ALBERT  MOCLDY    52  50  93 W5        29.65S
REGINA         CLEAR     50  45  81 E7        29.71S
YORKTON        MOCLDY    54  48  82 SW3       29.71F



USA.gov is the U.S. government's official web portal to all federal, state and local government web resources and services.